Greenville, ME

5:13 AM EST on December 16, 2019 (GMT -0500)
Greenville

Weather History for KGNR - August, 2019

Change the Weather History Date:

Saturday, August 24, 2019

  Actual Average (KMLT) Record (KMLT)
Temperature  
Mean Temperature 60 °F -  
Max Temperature 66 °F 73 °F 89 °F (1948)
Min Temperature 53 °F 51 °F 34 °F (1945)
Degree Days  
Heating Degree Days 5    
Growing Degree Days 10 (Base 50)    
Moisture  
Dew Point 50 °F    
Average Humidity 75    
Maximum Humidity 86    
Minimum Humidity 59    
Precipitation  
Precipitation 0.00 in - - ()
Sea Level Pressure  
Sea Level Pressure 30.19 in    
Wind  
Wind Speed 9 mph ()    
Max Wind Speed 16 mph    
Max Gust Speed 23 mph    
Averages and records for this station are not official NWS values.
T = Trace of Precipitation, MM = Missing Value Source: Averaged Metar Reports

Daily Weather History Graph

Daily Weather History Graph

Search for Another Location

Airport or City:

Astronomy

Aug. 24, 2019 Rise Set
Actual Time 5:49 AM EDT 7:30 PM EDT
Civil Twilight 5:18 AM EDT 8:02 PM EDT
Nautical Twilight 4:40 AM EDT 8:40 PM EDT
Astronomical Twilight 3:58 AM EDT 9:21 PM EDT
Moon No Moon Rise 2:50 PM EDT (8/24)
Length of Visible Light 14h 43m
Length of Day
13h 41m
Last Quarter, 39% of the Moon is Illuminated
Aug 24
Last Quarter
Aug 30
New
Sep 5
First Quarter
Sep 14
Full
Sep 21
Last Quarter

Hourly Weather History & Observations

Time (EDT) Temp. Dew Point Humidity Pressure Visibility Wind Dir Wind Speed Gust Speed Precip Events Conditions
12:56 AM 55.9 °F 48.9 °F 77% 30.01 in - NW 16.1 mph 23.0 mph N/A   Unknown
1:56 AM 54.0 °F 48.9 °F 83% 30.02 in - NW 10.4 mph 18.4 mph N/A   Unknown
2:56 AM 55.0 °F 50.0 °F 83% 30.04 in - NNW 9.2 mph - N/A   Unknown
3:56 AM 55.0 °F 50.0 °F 83% 30.06 in - NW 8.1 mph - N/A   Unknown
4:56 AM 54.0 °F 50.0 °F 86% 30.09 in - NW 6.9 mph - N/A   Unknown
5:56 AM 55.0 °F 51.1 °F 86% 30.10 in - NNW 9.2 mph - N/A   Unknown
6:56 AM 57.0 °F 51.1 °F 81% 30.13 in - North 9.2 mph - N/A   Unknown
7:56 AM 55.9 °F 50.0 °F 80% 30.16 in - North 12.7 mph 19.6 mph N/A   Unknown
8:56 AM 57.0 °F 48.9 °F 74% 30.18 in - North 15.0 mph - N/A   Unknown
9:56 AM 60.1 °F 50.0 °F 69% 30.19 in - North 10.4 mph - N/A   Unknown
10:56 AM 59.0 °F 50.0 °F 72% 30.20 in - North 11.5 mph - N/A   Unknown
11:56 AM 59.0 °F 51.1 °F 75% 30.21 in - North 11.5 mph - N/A   Unknown
12:56 PM 62.1 °F 51.1 °F 67% 30.22 in - North 11.5 mph - N/A   Unknown
1:56 PM 62.1 °F 51.1 °F 67% 30.24 in - NNW 8.1 mph - N/A   Unknown
2:56 PM 64.0 °F 52.0 °F 65% 30.24 in - NNW 6.9 mph - N/A   Unknown
3:56 PM 64.4 °F 51.8 °F 64% 30.23 in - Variable 6.9 mph - N/A   Unknown
4:00 PM - - N/A% - - North - - N/A   Unknown
4:56 PM 66.0 °F 51.1 °F 59% 30.25 in - NW 10.4 mph - N/A   Unknown
5:56 PM 64.9 °F 51.1 °F 61% 30.26 in - NNW 6.9 mph - N/A   Unknown
6:56 PM 62.1 °F 52.0 °F 70% 30.29 in - North 3.5 mph - N/A   Unknown
7:56 PM 60.1 °F 48.9 °F 67% 30.30 in - ENE 3.5 mph - N/A   Unknown
8:56 PM 55.9 °F 50.0 °F 80% 30.33 in - NNE 5.8 mph - N/A   Unknown
9:56 PM 55.0 °F 48.9 °F 80% 30.33 in - NE 3.5 mph - N/A   Unknown
10:56 PM 53.1 °F 48.9 °F 86% 30.35 in - Calm Calm - N/A   Unknown